This is the latest recevied weather packets stored in our database for station/object OK2ILA-3. If no packets are shown the sender has not sent any weather packets the latest 10 day(s).
| Time | Temp. | Humidity | Pressure | Rain* | Wind** | Luminosity | Snow |
|---|---|---|---|---|---|---|---|
| 1778130179 | 12.22° C | 12% | 12.6 hPa | 0 mm | - | - | - |
| 1778129567 | 12.22° C | 100% | 313.6 hPa | 0 mm | - | - | - |
| 1778128963 | 12.22° C | 23% | 313.6 hPa | 0 mm | - | - | - |
| 1778128357 | 12.22° C | 1% | 3558.6 hPa | 0 mm | - | - | - |
| 1778127751 | 12.22° C | 100% | 3558.6 hPa | 0 mm | - | - | - |
| 1778127145 | 12.22° C | 53% | 3558.6 hPa | 0 mm | - | - | - |
| 1778126542 | 12.22° C | 12% | 3558.6 hPa | 0 mm | - | - | - |
| 1778125937 | 11.67° C | 53% | 0 hPa | 0 mm | - | - | - |
| 1778125335 | 11.67° C | - | - | 110.49 mm | - | - | - |
| 1778124732 | 11.67° C | 11% | 0 hPa | 0 mm | - | - | - |
| 1778124126 | 12.22° C | 1% | 0 hPa | 0 mm | - | - | - |
| 1778123517 | 12.22° C | 7% | 921.6 hPa | 0 mm | - | - | - |
| 1778122912 | 12.22° C | 3% | 921.6 hPa | 0 mm | - | - | - |
| 1778122306 | 12.22° C | 28% | 6329 hPa | 0 mm | - | - | - |
| 1778121701 | 12.22° C | 100% | 6329 hPa | 0 mm | - | - | - |
| 1778121096 | 12.22° C | 10% | 6329 hPa | 0 mm | - | - | - |
| 1778120489 | 12.22° C | 7% | 0 hPa | 0 mm | - | - | - |
| 1778119884 | 12.22° C | 12% | 54.8 hPa | 0 mm | - | - | - |
| 1778119280 | 12.22° C | 3% | 137.6 hPa | 0 mm | - | - | - |
| 1778118672 | 12.22° C | 7% | 137.6 hPa | 0 mm | - | - | - |
| 1778118069 | 12.78° C | 53% | 137.6 hPa | 0 mm | - | - | - |
| 1778117466 | 12.78° C | 53% | 137.6 hPa | 0 mm | - | - | - |
| 1778116857 | 12.78° C | 100% | 1049.8 hPa | 0 mm | - | - | - |
| 1778116253 | 12.78° C | 11% | 1049.8 hPa | 0 mm | - | - | - |
| 1778115650 | 12.78° C | 30% | 1049.8 hPa | 0 mm | - | - | - |
* Rain latest 24 hours (hover to see other rain measurements)
** Current wind speed in m/s (hover to see current wind gust speed)